Starlink 31253

operational
NORAD ID: 58830 Int'l Des: 2024-017 Owner: SPXS Country: US Constellation: starlink
LEOCIRCULAR

Über Starlink 31253

Beschreibung wird geladen...

Live-Position

3D-Globus wird geladen...

Nächste Überflüge

Höhenverlauf

Altitude vs Time

uPlot chart will show altitude changes over time

Zweizeiliger Elementsatz

1 58830U 24017E 25258.48103566 .00000617 00000-0 32970-4 0 9992
2 58830 53.1605 297.9583 0001298 91.0636 269.0514 15.30195365 93236
Epoch: 15. Sept. 2025 • Age: 17 hours

Aktueller Status

Höhe 491.1 km
Geschwindigkeit 7.62 km/s
Subsatellitenpunkt -44.73°S, 102.87°E
Startdatum 24. Jan. 2024
Alter 1.6 years
Typ internet

Technische Details

Klassifizierung Payload
Masse 730.00 kg
Trockenmasse 700.00 kg
Gesamtmasse 730.00 kg
Länge 0.30 m
Durchmesser 4.10 m
Spannweite 29.00 m
Form Box + pan
Hersteller SPXS
Bus-Typ Starlink V2M
Phasenstatus In Orbit
Besitzer/Staat SPXS/US

Große Konstellationen

Loading constellations...